Flag for Portugal Weather past 2 weeks in Viana do Castelo, Portugal

Now
70 °F

Sunny.


Feels Like: 70 °F
Forecast: 55 / 72 °F
Wind: 15 mph from Northwest

Location: Porto / Pedras Rubras

Current Time: May 22, 2015 at 5:09:10 PM

Latest Report: May 22, 2015 at 4:30 PM


Visibility: 10 mi

Pressure: 30.15 "Hg

Humidity: 50%

Dew point: 50 °F

Location of Viana do CasteloLocation

Historic Weather in Viana do Castelo — Graph

°F

Viana do Castelo temperature yesterday

Maximum temperature yesterday: 72 °F (at 1:30 PM)
Minimum temperature yesterday: 48 °F (at 5:30 AM)
Average temperature yesterday: 61 °F

Past Weeks' High & Low Weather Summary

 TemperatureHumidityPressure
High82 °F (May 17, 1:00 PM)100% (May 7, 8:00 PM)30.36 "Hg (May 7, 8:00 PM)
Low48 °F (May 15, 5:03 AM)33% (May 21, 1:00 PM)29.89 "Hg (May 7, 6:30 PM)
Average62 °F74%30.17 "Hg
* Reported May 7 4:00 PM — May 22 4:00 PM, Viana do Castelo, Weather by CustomWeather, © 2015

Note: Actual official high and low records may vary slightly from our data, if they occured in-between our weather recording intervals... More about our weather records

Advertising

Viana do Castelo weather history for previous 24 hours

 ConditionsComfort  
Time TempWeatherWind HumidityBarometerVisibility
4:00 PM
Fri, May 22
68 °FPassing clouds.15 mph49%30.18 "HgN/A
3:30 PM68 °FSunny.16 mph46%30.18 "Hg10 mi
3:00 PM68 °FSunny.13 mph46%30.18 "Hg10 mi
2:30 PM68 °FPassing clouds.13 mph43%30.18 "HgN/A
2:00 PM66 °FPassing clouds.14 mph46%30.21 "HgN/A
1:30 PM68 °FPassing clouds.12 mph46%30.21 "HgN/A
1:00 PM66 °FSunny.9 mph52%30.21 "Hg10 mi
12:30 PM66 °FPassing clouds.9 mph49%30.24 "HgN/A
12:00 PM68 °FPassing clouds.8 mph35%30.24 "HgN/A
11:30 AM68 °FPassing clouds.8 mph35%30.24 "HgN/A
11:00 AM66 °FPassing clouds.7 mph40%30.24 "HgN/A
10:30 AM66 °FPassing clouds.10 mph35%30.27 "HgN/A
10:00 AM64 °FPassing clouds.10 mph34%30.27 "HgN/A
9:30 AM64 °FPassing clouds.10 mph40%30.27 "HgN/A
9:00 AM61 °FPassing clouds.13 mph42%30.27 "HgN/A
8:30 AM61 °FPassing clouds.13 mph45%30.27 "HgN/A
8:00 AM59 °FSunny.12 mph51%30.27 "Hg10 mi
7:30 AM59 °FPassing clouds.10 mph51%30.24 "HgN/A
7:00 AM57 °FPassing clouds.6 mph55%30.24 "HgN/A
6:30 AM54 °FClear.5 mph67%30.24 "Hg10 mi
6:00 AM54 °FClear.3 mph67%30.24 "Hg10 mi
5:30 AM54 °FClear.5 mph67%30.24 "Hg10 mi
5:00 AM55 °FClear.3 mph63%30.24 "Hg10 mi
4:30 AM59 °FClear.6 mph55%30.24 "Hg10 mi
4:00 AM59 °FPassing clouds.5 mph55%30.24 "HgN/A
3:30 AM61 °FClear.7 mph52%30.24 "Hg10 mi
3:00 AM61 °FClear.7 mph55%30.24 "Hg10 mi
2:30 AM61 °FClear.8 mph59%30.24 "Hg10 mi
2:00 AM59 °FClear.6 mph63%30.24 "Hg10 mi
1:30 AM59 °FClear.6 mph63%30.24 "Hg10 mi
1:00 AM61 °FPassing clouds.3 mph59%30.24 "HgN/A
12:30 AM59 °FClear.6 mph63%30.24 "Hg10 mi
12:00 AM59 °FClear.9 mph63%30.24 "Hg10 mi
11:30 PM
Thu, May 21
61 °FClear.7 mph59%30.24 "Hg10 mi
11:00 PM61 °FClear.7 mph59%30.24 "Hg10 mi
10:30 PM59 °FClear.7 mph68%30.24 "Hg10 mi
10:00 PM61 °FClear.7 mph68%30.24 "Hg10 mi
9:30 PM61 °FSunny.8 mph68%30.24 "Hg10 mi
9:00 PM63 °FSunny.9 mph64%30.24 "Hg10 mi
8:30 PM64 °FSunny.12 mph60%30.24 "Hg10 mi
8:00 PM64 °FSunny.10 mph60%30.24 "Hg10 mi
7:30 PM66 °FSunny.10 mph56%30.24 "Hg10 mi
7:00 PM68 °FSunny.10 mph53%30.24 "Hg10 mi
6:30 PM68 °FSunny.14 mph53%30.24 "Hg10 mi
6:00 PM68 °FSunny.12 mph53%30.24 "Hg10 mi
5:30 PM68 °FSunny.12 mph56%30.27 "Hg10 mi
5:00 PM70 °FSunny.12 mph50%30.27 "Hg10 mi
Weather by CustomWeather, © 2015

See weather overviewHow to use our weather pages